ブラッドフィールド彗星

C/1992 B1 ( Bradfield )

English version
Home page
Updated on November 10, 2002

---------------------------------------------------------------------

・ プロフィール

発見日 1992年1月31日
発見光度 10等
発見者 William A. Bradfield (Dernancourt, near Adelaide, S. Australia)

・ 軌道要素

     T = 1992 Mar. 19.537 TT          Peri. =  15.491
                                      Node  = 275.305   2000.0
     q = 0.49915 AU                   Incl. =  20.242

・ 光度変化

        m1 = 9.0 + 5 logΔ + 10.0 log r  [   ,-41]  (              〜1992年 2月 7日)
        m1 = 9.5 + 5 logΔ - 15   log r  [-41,  0]  (1992年 2月 7日〜1992年 3月19日)
        m1 = 20  + 5 logΔ + 20   log r  [  0,   ]  (1992年 3月19日〜              )

        ※ 灰色の曲線は、m1 = 9.0 + 5 logΔ + 10.0 log r の光度曲線です。

---------------------------------------------------------------------

軌道要素はIAUC 5445に掲載されたものです。
光度グラフはComet for Windowsで作成したものです。

---------------------------------------------------------------------

Copyright(C) Seiichi Yoshida (comet@aerith.net). All rights reserved.